Theta_e
309 306 306 304 305 307 304 303 303 303 302 301 301 302 300 300 300 299 299 300 301 302 302 301 301 303 303 303 305 305 304 306 308 311 313 313 312 313 310 310 309 307 308
309 305 304 306 302 303 303 302 302 302 302 302 301 300 301 299 299 300 300 300 299 300 301 301 301 301 300 301 301 301 303 306 310 306 309 309 309 310 310 309 307 306 304
306 303 301 301 304 302 303 303 303 303 303 302 301 299 298 299 298 299 301 301 301 300 301 300 300 298 299 300 301 301 302 305 306 305 303 305 305 307 306 306 305 302 307
303 301 302 304 301 302 303 303 303 304 302 302 299 298 297 298 298 300 300 301 302 301 301 300 298 297 296 299 299 300 302 301 303 302 303 302 301 302 302 301 300 300 300
302 302 301 304 305 305 304 304 304 304 304 303 299 299 299 299 300 300 300 300 302 301 301 302 303 306 307 305 300 299 301 301 300 299 298 299 299 298 298 299 298 298 300
301 301 304 305 304 302 304 303 304 304 304 304 303 300 299 300 301 302 303 300 302 302 302 302 300 303 302 305 306 307 305 301 299 298 298 298 297 296 297 296 297 296 296
301 303 303 303 302 304 304 304 302 301 302 302 303 303 300 300 301 301 304 301 302 300 300 301 300 300 301 301 304 305 304 306 305 300 299 299 299 300 301 300 300 299 295
301 302 305 304 304 305 304 303 303 302 299 298 302 303 302 302 300 299 302 304 303 300 297 297 297 298 301 302 302 299 298 298 300 302 298 297 298 299 299 300 299 298 301
302 301 303 304 302 303 302 303 302 302 300 303 302 302 301 301 300 300 302 304 302 301 299 300 298 297 299 301 302 301 300 299 302 302 301 301 301 302 304 303 300 300 299
301 301 302 304 302 302 301 300 300 302 302 301 303 304 304 302 299 299 300 302 301 302 302 302 301 298 298 299 298 297 298 300 301 298 299 301 302 301 304 300 300 298 299
302 303 302 302 302 302 301 300 300 300 300 302 298 299 303 304 302 299 299 302 301 300 300 300 300 299 297 298 298 299 298 300 300 300 300 301 300 299 302 299 298 298 297
301 302 301 303 306 305 301 300 300 299 298 298 300 298 301 303 301 300 299 299 301 300 300 301 300 297 297 297 299 298 298 300 299 299 298 297 297 300 301 301 298 297 301
302 300 300 303 304 303 301 299 299 299 297 297 297 297 299 300 301 300 299 300 301 302 302 300 299 298 298 300 299 299 299 299 298 296 295 297 299 300 301 300 300 299 299
300 300 300 300 300 301 303 302 298 297 297 296 297 297 300 300 300 298 299 301 301 303 303 302 301 300 299 301 300 300 300 300 298 297 297 299 300 299 298 299 297 297 296
301 300 301 301 299 300 301 300 300 297 296 297 295 295 296 299 298 294 294 296 297 297 298 302 301 299 299 299 300 301 300 299 298 299 298 298 298 297 297 298 297 297 295
300 299 298 299 300 303 304 302 298 298 298 296 294 294 298 296 295 294 294 296 295 295 297 299 299 298 299 298 298 299 300 300 298 298 298 298 297 297 297 297 297 296 296
301 300 302 303 302 302 302 304 299 303 298 297 296 295 294 295 295 294 294 297 296 298 298 298 300 300 299 299 299 299 299 300 301 298 297 297 298 297 297 296 297 297 295
301 300 302 303 302 302 303 304 305 303 301 302 301 296 295 296 296 294 294 297 299 299 299 298 298 300 297 299 300 301 301 301 300 301 298 298 298 297 297 297 297 297 296
301 299 301 303 303 302 304 304 305 302 301 300 300 298 295 296 297 296 296 300 298 298 298 298 298 299 299 297 298 300 301 300 300 301 301 300 300 299 297 296 296 292 294
301 299 302 302 302 302 303 303 301 302 299 299 298 297 297 298 299 298 299 299 299 299 299 299 299 299 300 297 298 298 299 299 299 300 302 303 303 301 300 298 297 297 296
305 300 293 302 301 302 302 302 301 302 299 298 298 297 288 296 298 298 298 298 299 299 299 299 299 299 300 296 295 296 296 295 296 297 299 302 304 299 298 300 299 298 297
304 302 300 300 302 301 300 301 300 299 299 298 298 299 290 299 298 298 298 299 299 300 300 300 299 299 300 298 297 293 292 292 292 293 296 300 302 300 297 299 297 297 297
301 301 299 301 301 296 300 300 299 299 298 298 299 298 298 298 298 298 298 299 299 300 300 300 299 299 300 296 297 295 291 289 288 291 295 296 301 300 298 297 297 295 295
303 301 299 299 299 299 299 299 299 295 298 298 298 298 298 298 298 299 298 299 299 300 300 300 300 300 299 295 292 293 292 288 286 289 291 292 298 300 301 299 298 298 298
302 300 299 298 297 296 297 299 298 298 298 298 298 298 298 299 298 299 298 298 298 298 299 298 298 299 297 293 290 289 287 285 285 286 289 292 297 301 303 303 301 301 302
301 299 299 298 297 297 297 296 296 298 297 298 298 298 298 298 298 298 298 298 297 298 298 298 298 296 293 291 288 285 285 285 286 285 286 292 299 303 303 303 304 303 303
Wind_Speed
8 6 6 7 8 6 7 7 8 8 8 9 10 9 9 10 11 10 10 10 10 8 9 9 9 9 6 6 6 5 6 2 5 4 2 4 5 6 3 10 9 7 7
9 7 9 9 5 5 6 7 7 8 7 8 9 8 7 9 9 10 8 7 8 8 9 9 9 7 8 7 6 8 8 8 5 13 7 3 5 4 6 7 7 6 6
8 7 8 7 7 6 7 6 8 9 9 9 9 9 9 8 10 10 9 6 4 5 5 7 7 6 8 6 7 7 6 6 7 7 5 4 5 4 6 8 4 4 6
6 6 7 8 6 7 8 8 9 9 10 10 9 8 7 8 9 9 9 8 7 3 3 5 5 6 6 7 7 8 6 5 4 5 5 4 6 6 4 5 6 3 3
8 7 7 8 9 9 8 9 9 9 8 8 6 7 9 7 7 8 8 8 7 7 5 5 8 13 17 14 6 6 8 7 3 7 6 7 4 5 4 2 3 3 3
8 6 8 10 9 8 10 11 11 11 9 8 8 5 10 8 16 15 10 6 6 8 8 6 6 13 13 14 12 15 12 7 8 6 4 6 4 3 2 2 2 4 2
6 6 5 5 6 7 7 9 11 9 9 10 10 9 9 11 16 14 12 4 7 9 8 8 7 7 10 7 7 11 13 16 12 5 7 4 5 5 3 3 3 2 1
7 7 8 7 7 7 9 9 7 8 7 6 9 10 9 10 17 15 11 6 5 6 7 7 7 9 11 7 5 6 8 7 6 6 6 5 5 4 3 2 1 1 0
7 6 6 6 7 7 6 8 8 7 6 8 6 9 8 9 17 18 10 6 4 5 4 8 7 7 14 13 7 8 7 6 8 11 11 10 8 12 10 3 4 3 1
5 5 6 6 6 7 6 6 4 5 7 6 9 6 9 9 11 15 11 7 8 6 6 6 12 9 11 12 7 5 7 7 7 6 5 6 8 8 11 7 4 4 2
5 6 6 6 4 5 4 4 5 5 6 9 7 6 7 7 11 14 15 7 5 6 6 6 6 9 12 10 9 5 4 5 7 6 5 4 5 5 6 6 6 5 3
3 5 6 5 4 4 5 6 6 6 6 6 7 6 5 5 8 10 11 11 11 5 4 5 6 11 11 11 7 9 9 6 4 4 5 4 4 4 4 5 6 5 5
3 4 5 5 5 5 5 6 5 6 5 5 5 5 6 6 5 9 9 10 8 6 5 5 7 9 10 8 11 10 7 4 3 3 4 3 3 3 3 3 3 5 7
4 5 4 5 5 4 4 3 4 5 5 5 5 5 6 7 8 7 6 6 7 4 7 5 6 6 7 5 5 5 4 3 3 3 3 2 2 2 2 2 3 3 5
5 2 4 3 3 2 3 1 2 1 1 3 3 4 4 7 8 8 4 5 5 5 4 3 5 4 5 5 5 4 3 3 3 2 2 2 2 2 3 3 3 3 4
3 3 3 3 4 3 1 3 1 3 7 4 7 5 5 5 11 14 10 13 13 9 5 5 3 4 5 4 4 4 3 4 3 2 2 2 3 3 3 3 2 1 1
3 4 3 4 4 4 4 2 3 4 7 8 9 11 5 4 11 13 11 11 13 10 6 6 6 5 3 4 3 3 3 3 2 3 3 3 3 3 3 2 1 1 1
2 2 3 3 2 3 4 3 3 3 2 3 5 2 11 10 9 10 10 9 7 7 5 5 5 4 4 5 6 5 4 4 3 2 2 2 2 2 2 2 1 2 2
3 0 3 4 3 4 2 3 4 4 3 3 3 6 6 8 8 8 11 4 5 5 6 6 5 4 4 4 5 5 4 4 4 3 1 3 3 3 2 2 2 2 1
2 3 2 3 4 4 3 2 2 2 3 4 3 4 4 5 4 4 3 4 4 5 5 5 5 5 4 4 5 5 5 5 5 5 4 3 2 3 4 4 3 1 1
5 3 1 3 3 3 3 4 3 3 3 3 1 2 4 3 4 4 3 4 4 4 4 5 5 5 4 4 4 5 5 5 5 5 5 6 4 2 3 4 3 3 2
2 3 1 2 3 4 4 4 4 4 2 2 2 3 7 4 4 3 4 4 4 4 4 4 5 5 4 4 4 4 5 6 5 6 6 6 5 1 1 2 2 2 2
3 4 2 3 3 4 4 4 4 4 4 4 4 3 3 3 3 4 4 4 4 5 3 4 4 5 4 4 5 3 5 6 6 5 6 6 5 2 2 3 3 3 3
3 4 5 4 3 2 3 3 3 4 4 4 4 4 3 4 3 3 3 3 4 3 3 3 4 5 5 4 4 5 4 5 5 5 7 6 4 5 4 3 4 6 5
2 4 4 4 3 2 1 2 2 3 3 4 4 3 3 3 3 3 4 4 3 1 3 3 3 4 7 8 8 10 9 8 6 7 5 5 7 7 5 4 5 4 5
5 1 1 4 3 3 4 3 1 3 3 3 3 4 4 4 4 4 5 4 5 3 1 2 4 9 11 7 9 10 11 12 9 8 6 5 5 5 4 4 2 3 4
Wind_Direction
55 48 29 17 15 32 24 17 5 354 355 357 2 3 16 15 11 12 13 9 13 8 14 15 11 1 3 355 342 350 346 293 139 105 111 116 79 114 95 101 105 101 97
46 26 23 29 26 17 20 13 2 356 351 359 3 9 6 15 4 358 354 354 2 1 16 10 11 2 10 359 351 0 343 357 94 107 99 72 89 100 125 107 115 100 96
45 33 18 6 13 2 15 2 3 356 4 6 9 10 12 16 2 353 351 334 322 330 14 29 12 0 14 3 10 8 352 14 45 77 78 50 40 49 47 74 97 97 101
49 26 15 17 10 15 14 7 10 8 16 17 18 17 18 8 3 359 355 350 2 346 33 35 2 23 21 13 14 13 18 21 36 68 77 75 72 52 64 83 86 44 96
38 32 23 21 28 16 12 9 9 12 5 17 3 11 10 14 3 355 354 344 14 22 32 25 30 25 23 25 32 16 26 44 66 74 70 70 48 41 50 47 84 75 34
29 20 32 29 21 15 18 16 17 12 9 2 1 356 13 10 2 2 3 346 11 29 17 13 19 21 7 5 15 49 57 41 60 82 72 78 55 44 43 77 93 66 40
19 14 38 29 11 3 8 13 11 14 7 5 6 9 20 16 7 5 1 348 46 32 26 19 18 7 5 348 21 47 43 52 66 80 84 61 60 17 29 32 49 79 192
22 9 25 10 14 2 16 17 7 19 7 357 5 10 9 13 6 6 354 41 50 52 34 20 13 358 2 6 72 60 46 42 36 58 70 77 67 38 63 210 152 43 84
38 13 12 5 3 2 23 23 17 18 356 2 4 4 8 11 11 15 14 20 32 55 68 43 24 8 3 23 51 52 50 34 52 66 70 68 49 43 38 36 39 88 51
29 11 2 358 8 15 24 25 351 9 17 0 1 355 359 9 5 15 16 21 31 29 20 30 24 26 22 34 45 39 49 24 59 41 31 31 54 40 50 47 31 62 76
33 356 358 359 16 6 9 6 8 16 25 22 9 356 3 20 28 20 15 30 30 30 22 14 18 12 25 31 38 53 53 49 49 55 51 51 46 36 41 40 45 49 41
36 358 346 3 8 25 29 10 8 20 27 20 1 355 352 8 24 20 27 34 14 14 17 29 26 30 31 29 39 41 52 51 54 47 49 46 49 44 46 51 53 45 46
354 0 348 354 16 23 43 32 6 5 18 355 354 348 345 350 351 5 10 2 17 22 12 11 24 24 28 26 33 39 41 54 57 66 60 44 34 45 103 93 82 76 65
338 350 355 40 1 26 30 44 33 6 360 360 358 352 353 3 359 352 346 342 353 20 1 358 10 22 42 39 19 28 32 44 59 64 60 52 44 38 76 104 86 62 64
340 316 342 31 340 353 80 36 73 42 251 342 348 333 341 2 348 327 308 347 349 346 330 22 25 18 25 18 23 30 27 35 55 53 70 81 89 71 63 65 61 51 87
52 3 337 349 333 339 196 270 232 240 279 292 276 242 311 306 1 10 2 28 20 11 26 20 16 13 21 8 15 1 17 34 46 60 73 90 87 75 74 65 76 92 102
85 0 336 355 350 343 351 1 297 275 268 290 312 316 320 309 7 7 18 25 16 16 26 18 22 13 0 3 4 352 5 3 42 57 83 85 93 96 107 117 151 131 93
136 331 329 322 319 338 347 8 40 19 7 335 287 346 21 51 4 356 0 29 9 14 9 12 4 10 8 7 359 356 355 4 10 55 150 140 143 143 139 138 152 145 133
152 48 329 338 321 321 19 53 55 26 24 7 5 12 9 3 30 16 10 27 10 10 5 1 353 0 7 9 357 355 358 358 342 357 327 201 199 183 171 147 140 127 157
188 214 76 348 329 1 54 52 55 38 345 353 38 358 338 355 5 351 10 7 12 358 357 349 351 355 9 16 2 353 0 359 355 346 336 333 247 181 181 178 188 169 120
189 226 340 38 14 40 33 0 6 96 90 61 31 340 330 318 340 4 16 357 2 348 349 346 338 348 1 27 13 358 2 349 347 337 338 331 329 169 186 180 163 143 162
273 166 103 26 45 25 9 9 13 15 36 25 328 333 9 10 12 20 2 352 343 346 343 344 350 343 359 18 10 7 355 346 338 333 325 325 326 214 143 166 160 180 177
296 147 106 80 45 46 46 30 30 28 29 22 6 24 27 354 359 1 359 351 346 348 358 5 0 350 357 33 18 35 3 339 325 313 315 322 335 359 247 201 181 199 203
281 144 149 138 115 88 52 22 32 27 16 7 16 24 30 352 11 5 340 336 333 348 9 16 357 5 25 25 11 354 354 336 314 299 321 298 305 299 295 235 210 212 223
358 134 144 144 138 119 348 79 53 48 26 12 355 355 355 354 326 331 293 284 288 336 52 39 356 11 32 28 6 348 336 326 313 306 299 284 286 296 290 241 235 253 238
310 158 126 155 165 102 84 90 37 45 14 14 7 347 332 325 311 309 323 355 16 2 71 38 9 62 27 14 357 339 337 333 331 317 307 290 301 297 298 311 251 215 270